| time (UTC) | temp F | wind direction | speed knots | gust knots | rain 1hr in | rain 24hr in | rain mn in | humidity % | barometer mb |
| 20260508124743 | 66 | 261 | 5.2 | 7.8 | 0.00 | 0.00 | 0.00 | 53 | 1004.1 |
| 20260508123743 | 67 | 287 | 4.3 | 7.8 | 0.00 | 0.00 | 0.00 | 55 | 1003.8 |
| 20260508122743 | 67 | 264 | 6.1 | 7.8 | 0.00 | 0.00 | 0.00 | 56 | 1003.5 |
| 20260508121742 | 67 | 276 | 7.0 | 13.9 | 0.00 | 0.00 | 0.00 | 57 | 1003.4 |
| 20260508120741 | 67 | 269 | 6.1 | 8.7 | 0.00 | 0.00 | 0.00 | 56 | 1003.2 |
| 20260508115741 | 68 | 266 | 4.3 | 6.1 | 0.00 | 0.00 | 0.00 | 56 | 1003.1 |
| 20260508114741 | 68 | 259 | 2.6 | 5.2 | 0.00 | 0.00 | 0.00 | 56 | 1003.1 |
| 20260508113741 | 68 | 270 | 6.1 | 7.8 | 0.00 | 0.00 | 0.00 | 55 | 1002.9 |
| 20260508112743 | 68 | 268 | 5.2 | 7.0 | 0.00 | 0.00 | 0.00 | 56 | 1002.7 |
| 20260508111743 | 69 | 273 | 5.2 | 7.0 | 0.00 | 0.00 | 0.00 | 57 | 1002.5 |
| 20260508110743 | 69 | 267 | 5.2 | 7.8 | 0.00 | 0.00 | 0.00 | 58 | 1002.1 |
| 20260508105743 | 70 | 270 | 5.2 | 7.0 | 0.00 | 0.00 | 0.00 | 57 | 1002.1 |
| 20260508104742 | 70 | 263 | 5.2 | 7.8 | 0.00 | 0.00 | 0.00 | 56 | 1001.8 |
| 20260508103742 | 71 | 262 | 4.3 | 7.8 | 0.00 | 0.00 | 0.00 | 57 | 1001.6 |
| 20260508102742 | 72 | 270 | 4.3 | 6.1 | 0.00 | 0.00 | 0.00 | 57 | 1001.4 |
| 20260508101742 | 72 | 265 | 2.6 | 6.1 | 0.00 | 0.00 | 0.00 | 55 | 1001.4 |
| 20260508100742 | 72 | 267 | 4.3 | 7.0 | 0.00 | 0.00 | 0.00 | 52 | 1001.2 |
| 20260508095742 | 72 | 270 | 4.3 | 6.1 | 0.00 | 0.00 | 0.00 | 53 | 1000.9 |
| 20260508094742 | 71 | 273 | 4.3 | 7.0 | 0.00 | 0.00 | 0.00 | 67 | 1000.8 |
| 20260508093741 | 71 | 267 | 4.3 | 7.0 | 0.00 | 0.00 | 0.00 | 70 | 1000.8 |
| 20260508092741 | 71 | 274 | 2.6 | 7.8 | 0.00 | 0.00 | 0.00 | 71 | 1000.8 |
| 20260508091741 | 71 | 268 | 4.3 | 7.0 | 0.00 | 0.00 | 0.00 | 72 | 1000.6 |
| 20260508090741 | 71 | 270 | 4.3 | 6.1 | 0.00 | 0.00 | 0.00 | 73 | 1000.7 |
| 20260508085741 | 72 | 272 | 1.7 | 4.3 | 0.00 | 0.00 | 0.00 | 73 | 1000.6 |
| 20260508084741 | 72 | 270 | 4.3 | 7.0 | 0.00 | 0.00 | 0.00 | 72 | 1000.5 |
| 20260508083743 | 72 | 271 | 4.3 | 5.2 | 0.00 | 0.00 | 0.00 | 72 | 1000.4 |
| 20260508082742 | 72 | 270 | 2.6 | 6.1 | 0.00 | 0.00 | 0.00 | 72 | 1000.4 |
| 20260508081742 | 72 | 278 | 2.6 | 5.2 | 0.00 | 0.00 | 0.00 | 73 | 1000.4 |
| 20260508080742 | 71 | 270 | 4.3 | 7.0 | 0.00 | 0.00 | 0.00 | 75 | 1000.8 |
| 20260508075742 | 71 | 267 | 5.2 | 5.2 | 0.00 | 0.00 | 0.00 | 75 | 1000.9 |
| 20260508074742 | 72 | 264 | 4.3 | 6.1 | 0.00 | 0.00 | 0.00 | 73 | 1000.7 |
| 20260508073742 | 73 | 263 | 1.7 | 7.0 | 0.00 | 0.00 | 0.00 | 72 | 1000.7 |
| 20260508072742 | 72 | 265 | 1.7 | 4.3 | 0.00 | 0.00 | 0.00 | 72 | 1000.7 |
| 20260508071742 | 72 | 270 | 4.3 | 6.1 | 0.00 | 0.00 | 0.00 | 72 | 1000.9 |
| 20260508070741 | 72 | 269 | 2.6 | 4.3 | 0.00 | 0.00 | 0.00 | 72 | 1001.0 |
| 20260508065741 | 72 | 263 | 1.7 | 4.3 | 0.00 | 0.00 | 0.00 | 74 | 1001.1 |
| 20260508064741 | 72 | 266 | 2.6 | 5.2 | 0.00 | 0.00 | 0.00 | 73 | 1001.1 |
| 20260508063741 | 71 | 270 | 5.2 | 7.0 | 0.00 | 0.00 | 0.00 | 74 | 1001.0 |
| 20260508061741 | 72 | 270 | 2.6 | 4.3 | 0.00 | 0.00 | 0.00 | 74 | 1001.1 |
| 20260508060743 | 72 | 270 | 5.2 | 8.7 | 0.00 | 0.00 | 0.00 | 73 | 1001.0 |
| 20260508055743 | 72 | 268 | 5.2 | 11.3 | 0.00 | 0.00 | 0.00 | 70 | 1001.1 |
| 20260508054743 | 72 | 262 | 5.2 | 5.2 | 0.00 | 0.00 | 0.00 | 72 | 1001.3 |
| 20260508053742 | 73 | 275 | 4.3 | 6.1 | 0.00 | 0.00 | 0.00 | 70 | 1001.3 |
| 20260508052742 | 73 | 264 | 5.2 | 7.8 | 0.00 | 0.00 | 0.00 | 68 | 1001.3 |
| 20260508051742 | 74 | 264 | 5.2 | 7.0 | 0.00 | 0.00 | 0.00 | 68 | 1001.2 |
| 20260508050742 | 74 | 262 | 5.2 | 7.8 | 0.00 | 0.00 | 0.00 | 68 | 1000.9 |
| 20260508045742 | 74 | 266 | 4.3 | 6.1 | 0.00 | 0.00 | 0.00 | 68 | 1001.3 |
| 20260508044741 | 74 | 276 | 2.6 | 6.1 | 0.00 | 0.00 | 0.00 | 67 | 1001.3 |
| 20260508043742 | 74 | 268 | 4.3 | 7.0 | 0.00 | 0.00 | 0.00 | 66 | 1001.5 |
| 20260508042741 | 74 | 271 | 5.2 | 8.7 | 0.00 | 0.00 | 0.00 | 67 | 1001.8 |
| 20260508041741 | 74 | 257 | 6.1 | 10.4 | 0.00 | 0.00 | 0.00 | 65 | 1001.9 |
| 20260508040741 | 76 | 264 | 5.2 | 7.8 | 0.00 | 0.00 | 0.00 | 63 | 1002.0 |
| 20260508035741 | 76 | 257 | 6.1 | 10.4 | 0.00 | 0.00 | 0.00 | 63 | 1002.0 |
| 20260508034741 | 76 | 273 | 4.3 | 7.8 | 0.00 | 0.00 | 0.00 | 62 | 1001.8 |
| 20260508033743 | 76 | 270 | 5.2 | 7.8 | 0.00 | 0.00 | 0.00 | 63 | 1002.1 |
| 20260508032743 | 75 | 273 | 2.6 | 5.2 | 0.00 | 0.00 | 0.00 | 65 | 1002.2 |
| 20260508031743 | 74 | 259 | 0.9 | 5.2 | 0.00 | 0.00 | 0.00 | 68 | 1002.0 |
| 20260508030742 | 74 | 251 | 2.6 | 6.1 | 0.00 | 0.00 | 0.00 | 69 | 1002.1 |
| 20260508025742 | 74 | 237 | 2.6 | 7.0 | 0.00 | 0.00 | 0.00 | 69 | 1002.4 |
| 20260508024742 | 73 | 246 | 1.7 | 2.6 | 0.00 | 0.00 | 0.00 | 71 | 1002.6 |
| 20260508023742 | 73 | 259 | 1.7 | 4.3 | 0.00 | 0.00 | 0.00 | 72 | 1002.8 |
| 20260508022742 | 73 | 257 | 2.6 | 6.1 | 0.00 | 0.00 | 0.00 | 73 | 1002.8 |
| 20260508021742 | 74 | 256 | 4.3 | 7.0 | 0.00 | 0.00 | 0.00 | 69 | 1003.0 |
| 20260508020742 | 74 | 256 | 1.7 | 6.1 | 0.00 | 0.00 | 0.00 | 70 | 1003.1 |
| 20260508015742 | 74 | 264 | 4.3 | 5.2 | 0.00 | 0.00 | 0.00 | 68 | 1003.2 |
| 20260508014741 | 73 | 258 | 1.7 | 4.3 | 0.00 | 0.00 | 0.00 | 70 | 1003.3 |
| 20260508013741 | 73 | 268 | 2.6 | 4.3 | 0.00 | 0.00 | 0.00 | 72 | 1003.6 |
| 20260508012742 | 72 | 263 | 2.6 | 4.3 | 0.00 | 0.00 | 0.00 | 75 | 1003.8 |
| 20260508011741 | 71 | 261 | 1.7 | 4.3 | 0.00 | 0.00 | 0.00 | 77 | 1003.9 |
| 20260508010741 | 71 | 258 | 4.3 | 7.0 | 0.00 | 0.00 | 0.00 | 77 | 1004.1 |
| 20260508005743 | 71 | 260 | 6.1 | 6.1 | 0.00 | 0.00 | 0.00 | 76 | 1003.8 |
| 20260508004743 | 71 | 264 | 4.3 | 5.2 | 0.00 | 0.00 | 0.00 | 77 | 1003.7 |
| 20260508003743 | 71 | 258 | 2.6 | 6.1 | 0.00 | 0.00 | 0.00 | 78 | 1003.7 |
| 20260508002742 | 71 | 259 | 5.2 | 6.1 | 0.00 | 0.00 | 0.00 | 78 | 1003.6 |
| 20260508001742 | 71 | 264 | 4.3 | 7.8 | 0.00 | 0.00 | 0.00 | 77 | 1003.9 |
| 20260508000742 | 72 | 267 | 4.3 | 7.0 | 0.00 | 0.00 | 0.00 | 76 | 1003.9 |
| 20260507235742 | 72 | 267 | 2.6 | 5.2 | 0.00 | 0.00 | 0.00 | 76 | 1003.9 |
| 20260507234742 | 73 | 259 | 2.6 | 6.1 | 0.00 | 0.00 | 0.00 | 75 | 1003.6 |
| 20260507233742 | 73 | 260 | 4.3 | 5.2 | 0.00 | 0.00 | 0.00 | 74 | 1003.8 |
| 20260507232742 | 73 | 251 | 1.7 | 2.6 | 0.00 | 0.00 | 0.00 | 74 | 1004.0 |
| 20260507231742 | 74 | 251 | 2.6 | 4.3 | 0.00 | 0.00 | 0.00 | 72 | 1004.3 |
| 20260507225742 | 74 | 200 | 1.7 | 2.6 | 0.00 | 0.00 | 0.00 | 70 | 1004.0 |
| 20260507224742 | 73 | 288 | 0.0 | 0.0 | 0.00 | 0.00 | 0.00 | 72 | 1004.5 |
| 20260507223741 | 73 | 274 | 0.0 | 0.0 | 0.00 | 0.00 | 0.00 | 73 | 1004.5 |
| 20260507222743 | 72 | 271 | 0.0 | 0.0 | 0.00 | 0.00 | 0.00 | 75 | 1004.6 |
| 20260507221743 | 71 | 233 | 0.0 | 0.0 | 0.00 | 0.00 | 0.00 | 77 | 1004.5 |
| 20260507220742 | 70 | 261 | 0.9 | 0.9 | 0.00 | 0.00 | 0.00 | 79 | 1004.6 |
| 20260507215742 | 70 | 246 | 0.0 | 0.9 | 0.00 | 0.00 | 0.00 | 80 | 1004.7 |
| 20260507214743 | 70 | 257 | 1.7 | 1.7 | 0.00 | 0.00 | 0.00 | 80 | 1005.1 |
| 20260507213742 | 70 | 226 | 0.0 | 0.0 | 0.00 | 0.00 | 0.00 | 79 | 1005.1 |
| 20260507212742 | 71 | 257 | 0.0 | 0.0 | 0.00 | 0.00 | 0.00 | 79 | 1005.1 |
| 20260507211742 | 70 | 256 | 0.9 | 0.9 | 0.00 | 0.00 | 0.00 | 79 | 1005.1 |
| 20260507210742 | 70 | 248 | 0.0 | 0.9 | 0.00 | 0.00 | 0.00 | 80 | 1005.0 |
| 20260507205742 | 70 | 294 | 0.0 | 0.0 | 0.00 | 0.00 | 0.00 | 79 | 1005.0 |
| 20260507204742 | 70 | 294 | 0.0 | 0.0 | 0.00 | 0.00 | 0.00 | 80 | 1005.0 |
| 20260507203741 | 70 | 294 | 0.0 | 0.0 | 0.00 | 0.00 | 0.00 | 80 | 1004.9 |
| 20260507202741 | 70 | 294 | 0.0 | 0.0 | 0.00 | 0.00 | 0.00 | 80 | 1005.1 |
| 20260507201741 | 70 | 294 | 0.0 | 0.0 | 0.00 | 0.00 | 0.00 | 80 | 1005.0 |
| 20260507200741 | 70 | 294 | 0.0 | 0.0 | 0.00 | 0.00 | 0.00 | 81 | 1005.1 |
| 20260507195741 | 69 | 294 | 0.0 | 0.0 | 0.00 | 0.00 | 0.00 | 81 | 1005.0 |
| 20260507194743 | 69 | 220 | 0.0 | 0.0 | 0.00 | 0.00 | 0.00 | 81 | 1004.9 |
| 20260507193743 | 69 | 260 | 0.0 | 0.0 | 0.00 | 0.00 | 0.00 | 81 | 1005.1 |
| 20260507192743 | 69 | 260 | 0.0 | 0.0 | 0.00 | 0.00 | 0.00 | 81 | 1005.0 |
| 20260507191743 | 70 | 277 | 0.0 | 0.0 | 0.00 | 0.00 | 0.00 | 81 | 1005.0 |
| 20260507190741 | 70 | 250 | 0.0 | 0.9 | 0.00 | 0.00 | 0.00 | 81 | 1005.1 |
| 20260507185742 | 69 | 14 | 0.0 | 0.0 | 0.00 | 0.00 | 0.00 | 81 | 1005.1 |
| 20260507184742 | 69 | 267 | 0.0 | 0.0 | 0.00 | 0.00 | 0.00 | 81 | 1005.2 |
| 20260507183742 | 69 | 7 | 0.0 | 0.0 | 0.00 | 0.00 | 0.00 | 80 | 1005.2 |
| 20260507182742 | 69 | 40 | 0.0 | 0.0 | 0.00 | 0.00 | 0.00 | 81 | 1005.2 |
| 20260507181743 | 69 | 40 | 0.0 | 0.0 | 0.00 | 0.00 | 0.00 | 81 | 1005.2 |
| 20260507180743 | 69 | 46 | 0.9 | 0.9 | 0.00 | 0.00 | 0.00 | 82 | 1005.2 |
| 20260507175741 | 69 | 28 | 0.0 | 0.0 | 0.00 | 0.00 | 0.00 | 82 | 1005.3 |
| 20260507174741 | 69 | 52 | 1.7 | 2.6 | 0.00 | 0.00 | 0.00 | 82 | 1005.2 |
| 20260507173742 | 69 | 27 | 1.7 | 1.7 | 0.00 | 0.00 | 0.00 | 83 | 1005.3 |
| 20260507172741 | 69 | 19 | 0.9 | 1.7 | 0.00 | 0.00 | 0.00 | 83 | 1005.4 |
| 20260507171741 | 69 | 46 | 0.9 | 0.9 | 0.00 | 0.00 | 0.00 | 83 | 1005.5 |
| 20260507170741 | 69 | 38 | 0.0 | 0.0 | 0.00 | 0.00 | 0.00 | 83 | 1005.6 |
| 20260507165743 | 69 | 301 | 0.0 | 0.0 | 0.00 | 0.00 | 0.00 | 83 | 1005.8 |
| 20260507164743 | 69 | 239 | 0.9 | 0.9 | 0.00 | 0.00 | 0.00 | 83 | 1006.0 |
| 20260507163742 | 69 | 252 | 0.0 | 0.9 | 0.00 | 0.00 | 0.00 | 83 | 1006.1 |
| 20260507162743 | 69 | 260 | 0.0 | 0.9 | 0.00 | 0.00 | 0.00 | 83 | 1006.2 |
| 20260507161743 | 69 | 258 | 0.0 | 0.0 | 0.00 | 0.00 | 0.00 | 83 | 1006.3 |
| 20260507160742 | 69 | 263 | 0.9 | 0.9 | 0.00 | 0.00 | 0.00 | 83 | 1006.5 |
| 20260507155743 | 69 | 273 | 0.9 | 0.9 | 0.00 | 0.00 | 0.00 | 83 | 1006.5 |
| 20260507154743 | 69 | 264 | 0.9 | 1.7 | 0.00 | 0.00 | 0.00 | 82 | 1006.4 |
| 20260507153742 | 70 | 276 | 0.0 | 0.9 | 0.00 | 0.00 | 0.00 | 82 | 1006.5 |
| 20260507152742 | 70 | 274 | 0.0 | 0.9 | 0.00 | 0.00 | 0.00 | 82 | 1006.6 |
| 20260507151742 | 70 | 250 | 0.0 | 0.0 | 0.00 | 0.00 | 0.00 | 82 | 1006.7 |
| 20260507150742 | 70 | 267 | 0.0 | 0.9 | 0.00 | 0.00 | 0.00 | 82 | 1006.8 |
| 20260507145741 | 70 | 275 | 0.0 | 0.9 | 0.00 | 0.00 | 0.00 | 82 | 1007.0 |
| 20260507144741 | 70 | 257 | 0.0 | 0.9 | 0.00 | 0.00 | 0.00 | 82 | 1007.0 |
| 20260507143741 | 70 | 284 | 0.0 | 0.0 | 0.00 | 0.00 | 0.00 | 82 | 1007.2 |
| 20260507142741 | 70 | 253 | 0.0 | 0.9 | 0.00 | 0.00 | 0.00 | 82 | 1007.2 |
| 20260507141741 | 70 | 254 | 0.9 | 0.9 | 0.00 | 0.00 | 0.00 | 82 | 1007.3 |
| 20260507140741 | 70 | 236 | 0.0 | 0.0 | 0.00 | 0.00 | 0.00 | 81 | 1007.1 |
| 20260507135741 | 70 | 267 | 0.0 | 0.0 | 0.00 | 0.00 | 0.00 | 81 | 1007.3 |
| 20260507134743 | 70 | 243 | 0.0 | 0.0 | 0.00 | 0.00 | 0.00 | 81 | 1007.5 |
| 20260507133743 | 70 | 234 | 0.0 | 0.0 | 0.00 | 0.00 | 0.00 | 81 | 1007.5 |
| 20260507132743 | 70 | 261 | 0.9 | 0.9 | 0.00 | 0.00 | 0.00 | 80 | 1007.6 |
| 20260507131743 | 70 | 246 | 0.0 | 0.0 | 0.00 | 0.00 | 0.00 | 80 | 1007.7 |
| 20260507130742 | 70 | 263 | 0.0 | 0.0 | 0.00 | 0.00 | 0.00 | 80 | 1007.8 |
| 20260507125742 | 70 | 250 | 0.0 | 0.0 | 0.00 | 0.00 | 0.00 | 80 | 1007.8 |